This is the latest recevied weather packets stored in our database for station/object KC9EGS. If no packets are shown the sender has not sent any weather packets the latest 10 day(s).
| Time | Temp. | Humidity | Pressure | Rain* | Wind** | Luminosity | Snow |
|---|---|---|---|---|---|---|---|
| 1777590606 | 4.44° C | 60% | 1012.7 hPa | 0 mm | - | - | - |
| 1777590313 | 4.44° C | 61% | 1012.7 hPa | 0 mm | - | - | - |
| 1777589708 | 4.44° C | 61% | 1012.8 hPa | 0 mm | - | - | - |
| 1777589113 | 4.44° C | 64% | 1012.8 hPa | 0 mm | - | - | - |
| 1777588808 | 4.44° C | 64% | 1012.9 hPa | 0 mm | - | - | - |
| 1777588513 | 5° C | 64% | 1012.9 hPa | 0 mm | - | - | - |
| 1777587908 | 5° C | 61% | 1012.6 hPa | 0 mm | - | - | - |
| 1777587311 | 5.56° C | 61% | 1012.6 hPa | 0 mm | - | - | - |
| 1777587008 | 5.56° C | 59% | 1012.5 hPa | 0 mm | - | - | - |
| 1777586712 | 5.56° C | 58% | 1012.5 hPa | 0 mm | - | - | - |
| 1777586108 | 5.56° C | 56% | 1012.4 hPa | 0 mm | - | - | - |
| 1777585513 | 5.56° C | 63% | 1012.4 hPa | 0 mm | - | - | - |
| 1777585208 | 5.56° C | 63% | 1012.5 hPa | 0 mm | - | - | - |
| 1777584913 | 5.56° C | 63% | 1012.5 hPa | 0 mm | - | - | - |
| 1777584307 | 5.56° C | 63% | 1012.7 hPa | 0 mm | - | - | - |
| 1777583712 | 5° C | 64% | 1012.7 hPa | 0 mm | - | - | - |
| 1777583407 | 5° C | 64% | 1012.7 hPa | 0 mm | - | - | - |
| 1777583113 | 5° C | 65% | 1012.7 hPa | 0 mm | - | - | - |
| 1777582507 | 5° C | 66% | 1012.8 hPa | 0 mm | - | - | - |
| 1777581911 | 5° C | 64% | 1012.8 hPa | 0 mm | - | - | - |
| 1777581606 | 5.56° C | 62% | 1012.7 hPa | 0 mm | - | - | - |
| 1777581313 | 5.56° C | 57% | 1012.7 hPa | 0 mm | - | - | - |
| 1777580706 | 6.11° C | 56% | 1012.4 hPa | 0 mm | - | - | - |
| 1777580112 | 6.11° C | 52% | 1012.4 hPa | 0 mm | - | - | - |
| 1777579807 | 6.11° C | 52% | 1012.4 hPa | 0 mm | - | - | - |
* Rain latest hour (hover to see other rain measurements)
** Current wind speed in m/s (hover to see current wind gust speed)